This demonstration page uses our WeatherBlox Daily Observations layout. Learn more.

Left ArrowRight Arrow

39.08367, -84.50855

Hourly Observations for December 9, 2019

Temp ( °F °C ) Dew Point ( °F °C ) Humidity (%) Winds ( mph kmh ) Pressure ( in mb ) Visibility ( mi km ) Precip ( " mm )
12:53 am 00:53 Mostly Cloudy 53 11.7 41 5 64 64 S 8 13 29.94 1014 10 16 N/A
1:53 am 01:53 Mostly Cloudy 53 11.7 41 5 64 64 S 6 9 29.92 1013 10 16 N/A
2:53 am 02:53 Cloudy 54 12.2 41 5 62 62 S 9 15 29.91 1013 10 16 N/A
3:53 am 03:53 Cloudy with Light Rain 53 11.7 42 5.6 66 66 SSW 8 13 29.89 1012 10 16 0.00 0.00
4:53 am 04:53 Cloudy with Light Rain 49 9.4 47 8.3 93 93 SE 3 6 29.86 1011 7 11 0.04 1.02
5:53 am 05:53 Cloudy 49 9.4 47 8.3 93 93 N N/A 29.83 1010 10 16 0.03 0.76
6:53 am 06:53 Cloudy with Light Rain 50 10 47 8.3 89 89 SSW 7 11 29.81 1010 7 11 0.02 0.51
7:53 am 07:53 Cloudy with Light Rain 51 10.6 48 8.9 89 89 S 10 17 29.77 1008 10 16 0.03 0.76
8:53 am 08:53 Cloudy with Light Rain 52 11.1 49 9.4 89 89 S 15 24 29.74 1007 10 16 0.01 0.25
9:53 am 09:53 Cloudy with Light Rain 53 11.7 50 10 89 89 S 14 22 29.72 1006 10 16 0.00 0.00
10:53 am 10:53 Cloudy with Light Rain 54 12.2 51 10.6 90 90 S 15 24 29.70 1006 9 14 0.01 0.25
11:53 am 11:53 Cloudy 54 12.2 52 11.1 93 93 S 12 19 29.65 1004 10 16 0.05 1.27
12:53 pm 12:53 Cloudy 56 13.3 52 11.1 87 87 SSW 14 22 29.62 1003 10 16 N/A
1:53 pm 13:53 Cloudy 57 13.9 52 11.1 83 83 SSW 20 31 29.59 1002 10 16 N/A
2:53 pm 14:53 Cloudy with Light Rain 57 13.9 54 12.2 90 90 SSW 15 24 29.59 1002 9 14 0.00 0.00
3:53 pm 15:53 Cloudy with Light Rain 56 13.3 54 12.2 93 93 SSW 15 24 29.60 1002 3 5 0.01 0.25
4:53 pm 16:53 Cloudy with Heavy Rain 57 13.9 55 12.8 93 93 SSW 16 26 29.61 1003 3 5 0.04 1.02
5:33 pm 17:33 Cloudy with Light Rain 58 14.4 55 12.8 90 90 SSW 18 30 29.60 1002 3 5 0.02 0.51
5:53 pm 17:53 Cloudy 58 14.4 55 12.8 90 90 SSW 14 22 29.61 1003 10 16 0.02 0.51
6:53 pm 18:53 Cloudy with Light Rain 58 14.4 56 13.3 93 93 SW 14 22 29.63 1004 5 8 0.03 0.76
7:53 pm 19:53 Cloudy 59 15 55 12.8 87 87 SW 10 17 29.65 1004 10 16 0.00 0.00
8:53 pm 20:53 Cloudy 59 15 55 12.8 87 87 SSW 13 20 29.67 1005 10 16 N/A
9:03 pm 21:03 Cloudy 59 15 55 12.8 87 87 SW 9 15 29.67 1005 10 16 N/A
9:49 pm 21:49 Cloudy 59 15 54 12 82 82 SW 12 19 29.68 1005 10 16 0.00 0.00
9:53 pm 21:53 Cloudy 59 15 54 12.2 83 83 SW 16 26 29.68 1005 10 16 0.00 0.00
10:11 pm 22:11 Cloudy with Light Rain 57 13.9 54 12.2 90 90 W 12 19 29.70 1006 10 16 0.00 0.00
10:28 pm 22:28 Cloudy 57 13.9 53 11.7 87 87 W 13 20 29.70 1006 10 16 0.00 0.00
10:53 pm 22:53 Mostly Cloudy 56 13.3 52 11.1 87 87 W 9 15 29.71 1006 10 16 0.00 0.00
11:07 pm 23:07 Cloudy 56 13.3 51 10.6 84 84 WSW 14 22 29.73 1007 10 16 N/A
11:23 pm 23:23 Cloudy 56 13.3 51 10.6 84 84 W 10 17 29.74 1007 10 16 N/A
11:53 pm 23:53 Cloudy 55 12.8 51 10.6 87 87 WSW 7 11 29.73 1007 10 16 N/A

Powered by AerisWeather